When you browse on this site, cookies collect data to enhance your experience and personalize the content and advertising you see.
Visit our Privacy Policy to learn more. By continuing to use the site, you agree to this use of cookies and data.
  • en Suisse
  • Liste des pays
  • À 7 jours
  • Température de l'eau
  • Carte météo
  • Widgets météo
  • user-avatar
    Se connecter

    Météo par heure à Podmogile

    Ce jour, 6 Décembre, Vendredi

    Heure Température Précipitation Vent Pression Humidité
    00:00 +1°C° 0 mm 6 m/s 745 mmHg 87%
    01:00 +1°C° 0 mm 6 m/s 745 mmHg 87%
    02:00 +1°C° 0 mm 6 m/s 745 mmHg 87%
    03:00 +1°C° 0 mm 6 m/s 744 mmHg 87%
    04:00 +1°C° 0 mm 6 m/s 744 mmHg 87%
    05:00 +1°C° 0 mm 6 m/s 743 mmHg 87%
    06:00 -1°C° 0 mm 6 m/s 743 mmHg 87%
    07:00 -1°C° 0 mm 6 m/s 743 mmHg 87%
    08:00 -2°C° 0 mm 6 m/s 742 mmHg 86%
    09:00 -2°C° 0 mm 6 m/s 742 mmHg 85%
    10:00 -2°C° 0 mm 6 m/s 741 mmHg 84%
    11:00 -3°C° 0 mm 6 m/s 741 mmHg 83%
    12:00 -3°C° 0.2 mm 7 m/s 741 mmHg 85%
    13:00 -3°C° 0.2 mm 7 m/s 740 mmHg 87%
    14:00 -3°C° 0.2 mm 7 m/s 740 mmHg 88%
    15:00 -2°C° 0 mm 7 m/s 740 mmHg 87%
    16:00 -2°C° 0 mm 7 m/s 739 mmHg 85%
    17:00 -1°C° 0 mm 7 m/s 739 mmHg 84%
    18:00 -1°C° 0 mm 7 m/s 739 mmHg 84%
    19:00 -1°C° 0 mm 7 m/s 740 mmHg 84%
    20:00 0°C° 0 mm 7 m/s 740 mmHg 84%
    21:00 0°C° 0 mm 7 m/s 740 mmHg 85%
    22:00 +1°C° 0 mm 6 m/s 740 mmHg 86%
    23:00 +1°C° 0 mm 6 m/s 740 mmHg 87%

    Demain, 7 Décembre, Samedi

    Heure Température Précipitation Vent Pression Humidité
    00:00 +1°C° 0 mm 6 m/s 741 mmHg 88%
    01:00 +1°C° 0 mm 5 m/s 741 mmHg 89%
    02:00 +1°C° 0 mm 5 m/s 741 mmHg 90%
    03:00 +1°C° 0 mm 5 m/s 741 mmHg 90%
    04:00 +1°C° 0 mm 5 m/s 741 mmHg 90%
    05:00 +1°C° 0 mm 5 m/s 740 mmHg 91%
    06:00 +1°C° 0 mm 5 m/s 740 mmHg 91%
    07:00 +1°C° 0 mm 4 m/s 740 mmHg 91%
    08:00 0°C° 0 mm 4 m/s 740 mmHg 91%
    09:00 0°C° 0.1 mm 4 m/s 740 mmHg 92%
    10:00 0°C° 0.1 mm 5 m/s 740 mmHg 92%
    11:00 -1°C° 0.1 mm 5 m/s 739 mmHg 92%
    12:00 -1°C° 0.3 mm 5 m/s 739 mmHg 91%
    13:00 -1°C° 0.3 mm 5 m/s 738 mmHg 91%
    14:00 -1°C° 0.3 mm 5 m/s 738 mmHg 91%
    15:00 0°C° 0.1 mm 5 m/s 737 mmHg 90%
    16:00 -1°C° 0.1 mm 6 m/s 737 mmHg 89%
    17:00 -1°C° 0.1 mm 6 m/s 736 mmHg 88%
    18:00 -1°C° 0 mm 6 m/s 736 mmHg 88%
    19:00 0°C° 0 mm 5 m/s 736 mmHg 88%
    20:00 0°C° 0 mm 5 m/s 736 mmHg 88%
    21:00 0°C° 0 mm 5 m/s 735 mmHg 89%
    22:00 +1°C° 0 mm 5 m/s 735 mmHg 90%
    23:00 +1°C° 0 mm 5 m/s 734 mmHg 91%

    Après-demain, 8 Décembre, Dimanche

    Heure Température Précipitation Vent Pression Humidité
    00:00 +1°C° 0.1 mm 5 m/s 734 mmHg 87%
    01:00 +1°C° 0.1 mm 5 m/s 734 mmHg 84%
    02:00 +1°C° 0.1 mm 5 m/s 734 mmHg 81%
    03:00 +1°C° 0 mm 5 m/s 735 mmHg 82%
    04:00 0°C° 0 mm 5 m/s 735 mmHg 84%
    05:00 0°C° 0 mm 5 m/s 735 mmHg 85%
    06:00 0°C° 0.1 mm 5 m/s 735 mmHg 87%
    07:00 0°C° 0.1 mm 5 m/s 736 mmHg 90%
    08:00 0°C° 0.1 mm 4 m/s 737 mmHg 93%
    09:00 0°C° 0 mm 4 m/s 737 mmHg 89%
    10:00 0°C° 0 mm 4 m/s 738 mmHg 85%
    11:00 0°C° 0 mm 4 m/s 738 mmHg 82%
    12:00 0°C° 0 mm 4 m/s 739 mmHg 80%
    13:00 +1°C° 0 mm 4 m/s 739 mmHg 78%
    14:00 +1°C° 0 mm 4 m/s 739 mmHg 77%
    15:00 0°C° 0 mm 4 m/s 739 mmHg 78%
    16:00 0°C° 0 mm 4 m/s 740 mmHg 80%
    17:00 +1°C° 0 mm 3 m/s 740 mmHg 81%
    18:00 0°C° 0 mm 4 m/s 740 mmHg 82%
    19:00 0°C° 0 mm 4 m/s 740 mmHg 82%
    20:00 0°C° 0 mm 4 m/s 739 mmHg 83%
    21:00 0°C° 0.1 mm 5 m/s 739 mmHg 87%
    22:00 -1°C° 0.1 mm 5 m/s 738 mmHg 91%
    23:00 -2°C° 0.1 mm 6 m/s 738 mmHg 95%

    9 Décembre, Lundi

    Heure Température Précipitation Vent Pression Humidité
    00:00 -1°C° 0.3 mm 6 m/s 737 mmHg 95%
    01:00 +1°C° 0.3 mm 6 m/s 737 mmHg 94%
    02:00 +2°C° 0.3 mm 6 m/s 736 mmHg 93%
    03:00 +2°C° 0.3 mm 6 m/s 735 mmHg 92%
    04:00 +2°C° 0.3 mm 6 m/s 735 mmHg 91%
    05:00 +2°C° 0.3 mm 6 m/s 734 mmHg 90%
    06:00 +3°C° 0.2 mm 6 m/s 734 mmHg 90%
    07:00 +3°C° 0.2 mm 6 m/s 734 mmHg 89%
    08:00 +3°C° 0.2 mm 6 m/s 733 mmHg 89%
    09:00 +3°C° 0.4 mm 5 m/s 734 mmHg 89%
    10:00 +3°C° 0.4 mm 5 m/s 734 mmHg 89%
    11:00 +3°C° 0.4 mm 5 m/s 734 mmHg 90%
    12:00 +3°C° 0.3 mm 5 m/s 734 mmHg 87%
    13:00 +5°C° 0.3 mm 5 m/s 734 mmHg 85%
    14:00 +5°C° 0.3 mm 5 m/s 734 mmHg 83%
    15:00 +3°C° 0 mm 5 m/s 735 mmHg 82%
    16:00 +3°C° 0 mm 5 m/s 735 mmHg 81%
    17:00 +3°C° 0 mm 5 m/s 736 mmHg 80%
    18:00 +2°C° 0 mm 5 m/s 736 mmHg 83%
    19:00 +2°C° 0 mm 5 m/s 736 mmHg 85%
    20:00 +1°C° 0 mm 4 m/s 737 mmHg 88%
    21:00 +1°C° 0 mm 4 m/s 737 mmHg 88%
    22:00 0°C° 0 mm 4 m/s 738 mmHg 89%
    23:00 0°C° 0 mm 4 m/s 738 mmHg 89%

    10 Décembre, Mardi

    Heure Température Précipitation Vent Pression Humidité
    00:00 +1°C° 0 mm 3 m/s 738 mmHg 90%
    01:00 +1°C° 0 mm 3 m/s 738 mmHg 90%
    02:00 +1°C° 0 mm 3 m/s 738 mmHg 91%
    03:00 0°C° 0 mm 3 m/s 739 mmHg 92%
    04:00 0°C° 0 mm 3 m/s 739 mmHg 92%
    05:00 0°C° 0 mm 3 m/s 739 mmHg 93%
    06:00 +1°C° 0 mm 2 m/s 739 mmHg 93%
    07:00 +1°C° 0 mm 2 m/s 739 mmHg 94%
    08:00 +1°C° 0 mm 2 m/s 739 mmHg 94%
    09:00 +1°C° 0 mm 2 m/s 739 mmHg 94%
    10:00 0°C° 0 mm 3 m/s 739 mmHg 94%
    11:00 +1°C° 0 mm 3 m/s 739 mmHg 94%
    12:00 +1°C° 0.2 mm 3 m/s 739 mmHg 95%
    13:00 +1°C° 0.2 mm 3 m/s 739 mmHg 96%
    14:00 +1°C° 0.2 mm 3 m/s 738 mmHg 97%
    15:00 +1°C° 0.1 mm 3 m/s 739 mmHg 96%
    16:00 +1°C° 0.1 mm 3 m/s 739 mmHg 96%
    17:00 +1°C° 0.1 mm 3 m/s 739 mmHg 95%
    18:00 +1°C° 0.7 mm 3 m/s 739 mmHg 95%
    19:00 -1°C° 0.7 mm 4 m/s 739 mmHg 96%
    20:00 -2°C° 0.7 mm 4 m/s 740 mmHg 96%
    21:00 -2°C° 0.4 mm 4 m/s 740 mmHg 93%
    22:00 -3°C° 0.4 mm 4 m/s 740 mmHg 91%
    23:00 -3°C° 0.4 mm 4 m/s 741 mmHg 88%

    11 Décembre, Mercredi

    Heure Température Précipitation Vent Pression Humidité
    00:00 -2°C° 0 mm 3 m/s 741 mmHg 86%
    01:00 -4°C° 0 mm 3 m/s 741 mmHg 84%
    02:00 -3°C° 0 mm 2 m/s 742 mmHg 81%
    03:00 -4°C° 0 mm 3 m/s 742 mmHg 84%
    04:00 -4°C° 0 mm 3 m/s 743 mmHg 86%
    05:00 -4°C° 0 mm 3 m/s 743 mmHg 89%
    06:00 -4°C° 0 mm 3 m/s 744 mmHg 87%
    07:00 -4°C° 0 mm 3 m/s 744 mmHg 86%
    08:00 -4°C° 0 mm 3 m/s 745 mmHg 85%
    09:00 -4°C° 0 mm 3 m/s 745 mmHg 83%
    10:00 -4°C° 0 mm 3 m/s 746 mmHg 81%
    11:00 -2°C° 0 mm 3 m/s 746 mmHg 79%
    12:00 -2°C° 0 mm 3 m/s 746 mmHg 80%
    13:00 -2°C° 0 mm 2 m/s 746 mmHg 80%
    14:00 -2°C° 0 mm 2 m/s 746 mmHg 80%
    15:00 -3°C° 0 mm 2 m/s 747 mmHg 84%
    16:00 -3°C° 0 mm 2 m/s 747 mmHg 87%
    17:00 -3°C° 0 mm 2 m/s 747 mmHg 91%
    18:00 -3°C° 0 mm 2 m/s 747 mmHg 88%
    19:00 -4°C° 0 mm 3 m/s 746 mmHg 86%
    20:00 -4°C° 0 mm 3 m/s 746 mmHg 83%
    21:00 -4°C° 0 mm 3 m/s 746 mmHg 80%
    22:00 -3°C° 0 mm 4 m/s 746 mmHg 77%
    23:00 -3°C° 0 mm 4 m/s 745 mmHg 73%
    Voir plus